Preview of NWS' New Version of Forecast
This preview is not operational and should not be used for support decisions.

Regional Weather Roundup (RWR)

Issued by National Weather Service (NWS)

                            
000
ASUS45 KBOU 241910
RWRCO 

WEATHER ROUNDUP FOR COLORADO
NATIONAL WEATHER SERVICE DENVER/BOULDER CO
100 PM MDT FRI MAY 24 2019

NOTE: "FAIR" INDICATES FEW OR NO CLOUDS BELOW 12000 FEET WITH NO
SIGNIFICANT WEATHER AND/OR OBSTRUCTIONS TO VISIBILITY.

COZ001>005-013-030-031-242000-
...NORTHWEST COLORADO...
  
CITY           SKY/WX    TMP DP  RH WIND       PRES   REMARKS
CRAIG          CLOUDY    54  33  45 W16       30.01F                  
HAYDEN         CLOUDY    51  31  46 W15       30.03F                  
MEEKER         PTSUNNY   53  29  39 SW14G25   30.03F                  
RANGELY        CLOUDY    56  34  42 W17G25    30.01F                  
RABBIT EARS PA NOT AVBL                                               
STEAMBOAT SPGS CLOUDY    48  30  49 W14       30.03S                  
WALDEN         FAIR      50  25  37 SW28G36   30.02F                  
$$

COZ006>008-011-242000-
...WEST CENTRAL VALLEYS...
  
CITY           SKY/WX    TMP DP  RH WIND       PRES   REMARKS
GRAND JUNCTION CLOUDY    59  35  40 W9        30.03F                  
MONTROSE       FAIR      59  30  33 N14G23    30.07F                  
EAGLE          CLOUDY    53  27  36 W15G23    30.06F                  
RIFLE          FAIR      57  33  40 W13       30.03F                  
DELTA          PTSUNNY   61  33  34 W7        30.06F                  
NUCLA          FAIR      57  32  38 SW8G20    30.11S                  
$$

COZ017>023-064>068-242000-
...SOUTHWEST COLORADO...
  
CITY           SKY/WX    TMP DP  RH WIND       PRES   REMARKS
DURANGO        FAIR      56  26  31 VRB7      30.12F                  
CORTEZ         FAIR      58  35  42 SW14      30.09F                  
PAGOSA SPRINGS FAIR      53  23  31 S3        30.15F                  
TELLURIDE      FAIR      46  21  36 CALM      30.16S                  
WOLF CREEK PAS FAIR      32  19  59 S20G31    30.29S WCI  20          
$$

COZ009-010-012-014-032>034-037-058>063-242000-
...CENTRAL COLORADO...
  
CITY           SKY/WX    TMP DP  RH WIND       PRES   REMARKS
ASPEN          PTSUNNY   51  24  34 CALM      30.06F                  
BUENA VISTA    FAIR      55  18  23 SW14G21   30.05F                  
COPPER MTN     FAIR      36  23  60 W15G25    30.18S                  
BERTHOUD PASS  FAIR      25  14  63 W37       30.14F WCI   6          
COTTONWOOD PAS FAIR      45  10  24 W20G36    30.11F                  
GUNNISON       FAIR      54  24  31 SW14G21   30.08F                  
GRANBY         FAIR      50  27  41 W24G31    30.06F                  
KREMMLING      FAIR      54  32  43 W16       30.06F                  
LEADVILLE      FAIR      43  23  45 SW13G23   30.10F                  
MONARCH PASS   FAIR      34  19  55 MISG      30.29S                  
SALIDA         PTSUNNY   62  16  16 S9        30.10F                  
SUNLIGHT       CLOUDY    32  27  80 SW8G21    30.20S WCI  25          
WILKERSON PASS FAIR      37  21  52 SW15G24   30.17S                  
$$

COZ069>075-242000-
...SAN LUIS VALLEY/SANGRE DE CRISTO MOUNTAINS...
  
CITY           SKY/WX    TMP DP  RH WIND       PRES   REMARKS
ALAMOSA        FAIR      62   0   8 SW15G36   30.07F                  
DEL NORTE      FAIR      57  15  18 SW21G30   30.09F                  
LA VETA PASS   NOT AVBL                                               
SAGUACHE       FAIR      55  21  26 CALM      30.07F                  
$$

COZ035-036-038>040-242000-
...NORTHERN COLORADO FRONT RANGE...
  
CITY           SKY/WX    TMP DP  RH WIND       PRES   REMARKS
DENVER INTL AP FAIR      64  26  23 VRB6      29.92F                  
AURORA         MOSUNNY   65  28  25 SW14G21   29.92F                  
FRONT RANGE AP MOSUNNY   66  27  22 SW10G16   29.93F                  
ERIE MUNI ARPT FAIR      67  24  19 SW15G22   29.95F                  
BOULDER MUN AP FAIR      64  25  22 SW14G24   29.91R                  
CENTENNIAL     FAIR      66  27  23 SW17G25   29.93F                  
BROOMFIELD     NOT AVBL                                               
FORT COLLINS   FAIR      67  31  26 SW16      29.87S                  
LONGMONT       FAIR      70  25  18 SW13G22   29.90F                  
$$

COZ041-046-047-076>085-087-088-242000-
...PIKES PEAK/PALMER DIVIDE AND SOUTHERN FOOTHILLS...
  
CITY           SKY/WX    TMP DP  RH WIND       PRES   REMARKS
COLO. SPRINGS  FAIR      67  22  18 SW24G35   29.97F                  
A. F. ACADEMY  FAIR      63  22  20 S20       29.96F                  
SCHRIEVER AFB  NOT AVBL                                               
CHEYENNE MTN   NOT AVBL                                               
ELLICOTT       NOT AVBL                                               
FALCON         FAIR      62  21  20 SW20G30   30.01F                  
FORT CARSON    FAIR      66  20  17 SW20G29   29.94F                  
LIMON          FAIR      65  29  25 SW16G28   29.95F                  
MONUMENT HILL  FAIR      57  28  33 MISG      30.00F                  
CANON CITY     FAIR      68  32  26 S10       29.95F                  
WALSENBURG     NOT AVBL                                               
TRINIDAD       FAIR      71  26  18 CALM      29.97F                  
$$

COZ042>045-048>051-090-091-242000-
...NORTHEAST COLORADO...
  
CITY           SKY/WX    TMP DP  RH WIND       PRES   REMARKS
GREELEY ARPT   FAIR      70  28  21 SW15G26   29.88F                  
AKRON          FAIR      69  30  23 SW16G29   29.90F                  
BURLINGTON     FAIR      72  40  31 SW18G31   29.94F                  
WRAY           FAIR      77  32  19 S17G24    29.88F                  
YUMA           FAIR      72   3   7 S20G28    29.88F                  
STERLING       FAIR      70  27  19 W13G21    29.86F                  
HOLYOKE        FAIR      73  32  21 SW12G20   29.89F                  
FORT MORGAN      N/A     69  24  18 SW14G22   29.90F                  
$$

COZ086-089-092>099-242000-
...SOUTHEAST COLORADO...
  
CITY           SKY/WX    TMP DP  RH WIND       PRES   REMARKS
PUEBLO         FAIR      71  32  23 VRB3      29.93F                  
LA JUNTA       FAIR      75  34  22 VRB5      29.92F                  
LAMAR          FAIR      78  40  25 S17G26    29.90F                  
SPRINGFIELD      N/A     73  40  30 S20G31    29.95F                  
$$